When you browse on this site, cookies collect data to enhance your experience and personalize the content and advertising you see.
Visit our Privacy Policy to learn more. By continuing to use the site, you agree to this use of cookies and data.
  • In Hungary
  • List of Countries
  • For 7 days
  • Water Temperature
  • Satellite Maps
  • Weather Map
  • News
  • Weather Widgets
  • user-avatar
    Login

    Hourly Weather Jingzhou

    Today, 18 February, Monday

    Time Temperature Precipitation Wind Pressure Humidity
    00:00 +1°C° 0.3 mm 2 mps 765 mmHg 63%
    01:00 +1°C° 0 mm 2 mps 764 mmHg 72%
    02:00 +1°C° 0.1 mm 2 mps 764 mmHg 74%
    03:00 +1°C° 0.1 mm 2 mps 763 mmHg 76%
    04:00 +1°C° 0.1 mm 2 mps 763 mmHg 78%
    05:00 +1°C° 0.1 mm 2 mps 763 mmHg 78%
    06:00 +1°C° 0.1 mm 2 mps 763 mmHg 78%
    07:00 -1°C° 0 mm 2 mps 763 mmHg 80%
    08:00 +1°C° 0 mm 2 mps 763 mmHg 77%
    09:00 +2°C° 0 mm 2 mps 764 mmHg 75%
    10:00 +2°C° 0 mm 2 mps 764 mmHg 72%
    11:00 +3°C° 0 mm 2 mps 763 mmHg 70%
    12:00 +4°C° 0 mm 2 mps 762 mmHg 67%
    13:00 +5°C° 0 mm 2 mps 761 mmHg 65%
    14:00 +5°C° 0 mm 2 mps 761 mmHg 65%
    15:00 +5°C° 0 mm 2 mps 761 mmHg 66%
    16:00 +5°C° 0 mm 2 mps 761 mmHg 67%
    17:00 +5°C° 0 mm 2 mps 761 mmHg 71%
    18:00 +4°C° 0 mm 2 mps 762 mmHg 76%
    19:00 +3°C° 0 mm 2 mps 762 mmHg 81%
    20:00 +4°C° 0 mm 1 mps 762 mmHg 82%
    21:00 +4°C° 0 mm 1 mps 763 mmHg 84%
    22:00 +4°C° 0 mm 1 mps 763 mmHg 86%
    23:00 +3°C° 0 mm 0 mps 763 mmHg 85%

    Tomorrow, 19 February, Tuesday

    Time Temperature Precipitation Wind Pressure Humidity
    00:00 +3°C° 0 mm 0 mps 763 mmHg 84%
    01:00 +3°C° 0 mm 0 mps 763 mmHg 83%
    02:00 +3°C° 0 mm 0 mps 763 mmHg 84%
    03:00 +4°C° 0 mm 1 mps 762 mmHg 84%
    04:00 +4°C° 0 mm 1 mps 762 mmHg 85%
    05:00 +4°C° 0 mm 1 mps 762 mmHg 84%
    06:00 +4°C° 0 mm 1 mps 763 mmHg 83%
    07:00 +4°C° 0 mm 1 mps 763 mmHg 83%
    08:00 +4°C° 0 mm 1 mps 763 mmHg 81%
    09:00 +5°C° 0 mm 1 mps 763 mmHg 80%
    10:00 +5°C° 0 mm 1 mps 764 mmHg 78%
    11:00 +5°C° 0.1 mm 1 mps 763 mmHg 76%
    12:00 +6°C° 0.1 mm 1 mps 763 mmHg 74%
    13:00 +6°C° 0.1 mm 1 mps 762 mmHg 72%
    14:00 +6°C° 0.8 mm 1 mps 762 mmHg 76%
    15:00 +6°C° 0.8 mm 1 mps 762 mmHg 80%
    16:00 +5°C° 0.8 mm 1 mps 762 mmHg 84%
    17:00 +5°C° 0.1 mm 1 mps 762 mmHg 85%
    18:00 +5°C° 0.1 mm 1 mps 763 mmHg 85%
    19:00 +5°C° 0.1 mm 1 mps 763 mmHg 86%
    20:00 +5°C° 0 mm 1 mps 764 mmHg 85%
    21:00 +5°C° 0 mm 1 mps 764 mmHg 85%
    22:00 +6°C° 0 mm 1 mps 764 mmHg 84%
    23:00 +5°C° 0.2 mm 1 mps 764 mmHg 85%

    Day after tomorrow, 20 February, Wednesday

    Time Temperature Precipitation Wind Pressure Humidity
    00:00 +5°C° 0.2 mm 1 mps 764 mmHg 85%
    01:00 +5°C° 0.2 mm 1 mps 764 mmHg 85%
    02:00 +4°C° 2 mm 2 mps 763 mmHg 87%
    03:00 +3°C° 2 mm 3 mps 763 mmHg 89%
    04:00 +3°C° 2 mm 4 mps 763 mmHg 91%
    05:00 +3°C° 0.2 mm 4 mps 763 mmHg 90%
    06:00 +4°C° 0.2 mm 4 mps 763 mmHg 89%
    07:00 +4°C° 0.2 mm 4 mps 763 mmHg 89%
    08:00 +4°C° 0.2 mm 4 mps 764 mmHg 88%
    09:00 +4°C° 0.2 mm 4 mps 764 mmHg 88%
    10:00 +4°C° 0.2 mm 4 mps 765 mmHg 88%
    11:00 +3°C° 0.2 mm 5 mps 764 mmHg 87%
    12:00 +5°C° 0.2 mm 5 mps 763 mmHg 87%
    13:00 +5°C° 0.2 mm 5 mps 763 mmHg 86%
    14:00 +4°C° 0.3 mm 6 mps 763 mmHg 87%
    15:00 +4°C° 0.3 mm 6 mps 763 mmHg 87%
    16:00 +4°C° 0.3 mm 6 mps 763 mmHg 87%
    17:00 +4°C° 0.1 mm 6 mps 764 mmHg 86%
    18:00 +4°C° 0.1 mm 6 mps 764 mmHg 86%
    19:00 +4°C° 0.1 mm 6 mps 765 mmHg 85%
    20:00 +4°C° 0 mm 6 mps 765 mmHg 85%
    21:00 +4°C° 0 mm 6 mps 766 mmHg 85%
    22:00 +4°C° 0 mm 6 mps 766 mmHg 85%
    23:00 +3°C° 0 mm 6 mps 766 mmHg 85%

    21 February, Thursday

    Time Temperature Precipitation Wind Pressure Humidity
    00:00 +3°C° 0 mm 6 mps 765 mmHg 86%
    01:00 +3°C° 0 mm 6 mps 765 mmHg 86%
    02:00 +3°C° 0.1 mm 6 mps 765 mmHg 86%
    03:00 +3°C° 0.1 mm 6 mps 764 mmHg 86%
    04:00 +3°C° 0.1 mm 5 mps 764 mmHg 86%
    05:00 +3°C° 1.2 mm 6 mps 764 mmHg 87%
    06:00 +3°C° 1.2 mm 6 mps 765 mmHg 87%
    07:00 +3°C° 1.2 mm 7 mps 765 mmHg 88%
    08:00 +3°C° 0.3 mm 7 mps 765 mmHg 87%
    09:00 +4°C° 0.3 mm 7 mps 765 mmHg 85%
    10:00 +4°C° 0.3 mm 8 mps 765 mmHg 84%
    11:00 +4°C° 0.7 mm 7 mps 765 mmHg 84%
    12:00 +4°C° 0.7 mm 7 mps 764 mmHg 83%
    13:00 +3°C° 0.7 mm 7 mps 764 mmHg 83%
    14:00 +3°C° 0.7 mm 7 mps 764 mmHg 82%
    15:00 +3°C° 0.7 mm 7 mps 764 mmHg 80%
    16:00 +3°C° 0.7 mm 7 mps 764 mmHg 79%
    17:00 +3°C° 0.2 mm 7 mps 764 mmHg 79%
    18:00 +3°C° 0.2 mm 6 mps 764 mmHg 78%
    19:00 +3°C° 0.2 mm 6 mps 765 mmHg 78%
    20:00 +3°C° 0 mm 6 mps 765 mmHg 78%
    21:00 +2°C° 0 mm 5 mps 765 mmHg 79%
    22:00 +3°C° 0 mm 4 mps 766 mmHg 79%
    23:00 +1°C° 0 mm 4 mps 766 mmHg 80%

    22 February, Friday

    Time Temperature Precipitation Wind Pressure Humidity
    00:00 +2°C° 0 mm 3 mps 765 mmHg 81%
    01:00 +2°C° 0 mm 3 mps 765 mmHg 82%
    02:00 +1°C° 0 mm 3 mps 765 mmHg 82%
    03:00 +2°C° 0 mm 2 mps 765 mmHg 83%
    04:00 +2°C° 0 mm 2 mps 764 mmHg 83%
    05:00 +2°C° 0 mm 2 mps 765 mmHg 82%
    06:00 +2°C° 0 mm 2 mps 765 mmHg 82%
    07:00 +3°C° 0 mm 2 mps 766 mmHg 81%
    08:00 +5°C° 0 mm 2 mps 766 mmHg 74%
    09:00 +6°C° 0 mm 2 mps 766 mmHg 67%
    10:00 +8°C° 0 mm 2 mps 766 mmHg 60%
    11:00 +9°C° 0 mm 2 mps 765 mmHg 57%
    12:00 +10°C° 0 mm 2 mps 765 mmHg 55%
    13:00 +12°C° 0 mm 2 mps 764 mmHg 52%
    14:00 +13°C° 0 mm 1 mps 764 mmHg 52%
    15:00 +13°C° 0 mm 1 mps 763 mmHg 52%
    16:00 +13°C° 0 mm 1 mps 763 mmHg 52%
    17:00 +12°C° 0 mm 1 mps 763 mmHg 57%
    18:00 +11°C° 0 mm 1 mps 764 mmHg 62%
    19:00 +10°C° 0 mm 1 mps 764 mmHg 67%
    20:00 +9°C° 0 mm 1 mps 764 mmHg 69%
    21:00 +9°C° 0 mm 1 mps 765 mmHg 70%
    22:00 +9°C° 0 mm 1 mps 765 mmHg 72%
    23:00 +9°C° 0 mm 1 mps 765 mmHg 73%

    23 February, Saturday

    Time Temperature Precipitation Wind Pressure Humidity
    00:00 +9°C° 0 mm 1 mps 765 mmHg 74%
    01:00 +8°C° 0 mm 2 mps 765 mmHg 75%
    02:00 +7°C° 0 mm 2 mps 764 mmHg 76%
    03:00 +7°C° 0 mm 2 mps 764 mmHg 78%
    04:00 +7°C° 0 mm 2 mps 764 mmHg 79%
    05:00 +7°C° 0 mm 2 mps 764 mmHg 79%
    06:00 +7°C° 0 mm 2 mps 765 mmHg 80%
    07:00 +7°C° 0 mm 1 mps 765 mmHg 80%
    08:00 +8°C° 0 mm 2 mps 765 mmHg 73%
    09:00 +10°C° 0 mm 3 mps 765 mmHg 66%
    10:00 +11°C° 0 mm 3 mps 766 mmHg 58%
    11:00 +11°C° 0 mm 3 mps 765 mmHg 60%
    12:00 +11°C° 0 mm 3 mps 764 mmHg 62%
    13:00 +11°C° 0 mm 3 mps 764 mmHg 64%
    14:00 +11°C° 0 mm 3 mps 763 mmHg 63%
    15:00 +12°C° 0 mm 3 mps 763 mmHg 61%
    16:00 +12°C° 0 mm 3 mps 763 mmHg 60%
    17:00 +12°C° 0.2 mm 2 mps 763 mmHg 64%
    18:00 +10°C° 0.2 mm 2 mps 763 mmHg 68%
    19:00 +11°C° 0.2 mm 1 mps 764 mmHg 72%
    20:00 +10°C° 0.3 mm 1 mps 764 mmHg 76%
    21:00 +10°C° 0.3 mm 1 mps 764 mmHg 79%
    22:00 +9°C° 0.3 mm 1 mps 764 mmHg 83%
    23:00 +9°C° 0.2 mm 1 mps 764 mmHg 84%
    Show more